Regional Weather Roundup
Issued by NWS

Home | Current Version | Previous Version | Text Only | Print | Product List | Glossary On
Versions: 1 2 3 4 5 6 7 8 9 10 11 12 13 14 15 16 17 18 19 20 21 22 23 24 25 26 27
000
ASUS43 KDMX 171407
RWRIA

WEATHER ROUNDUP FOR IOWA
NATIONAL WEATHER SERVICE DES MOINES IA
900 AM CDT THU APR 17 2014

NOTE: "FAIR" INDICATES FEW OR NO CLOUDS BELOW 12,000 FEET WITH NO
SIGNIFICANT WEATHER AND/OR OBSTRUCTIONS TO VISIBILITY.

* - THESE STATIONS ARE NOT NWS STATIONS...THUS NOT UNDER NWS
QUALITY CONTROL.  THEY ALSO DO NOT REPORT WEATHER SUCH
AS PRECIPITATION OR FOG.

IAZ001>003-012>014-020>022-031>034-043>046-171500-
   NORTHWEST IOWA

CITY           SKY/WX    TMP DP  RH WIND       PRES   REMARKS
CARROLL *      CLOUDY    32  25  74 NW18G24   30.27S WCI  20
CHEROKEE *     SUNNY     30  24  79 NW13      30.30R WCI  20
DENISON *      CLOUDY    32  27  80 NW14      30.28R WCI  22
LE MARS *      MOSUNNY   30  25  80 N9        30.32R WCI  22
ORANGE CITY *  SUNNY     28  21  74 N10       30.30R WCI  19
SHELDON *      MOSUNNY   27  23  86 NW12      30.29R WCI  16
SIOUX CITY     CLOUDY    32  24  72 NW13      30.32R WCI  22
SPENCER        MOSUNNY   28  22  78 NW13      30.28R WCI  17
STORM LAKE *   PTSUNNY   28  25  86 NW13      30.28R WCI  18
$$

IAZ055>058-069>071-079>083-090>094-171500-
   SOUTHWEST IOWA

CITY           SKY/WX    TMP DP  RH WIND       PRES   REMARKS
ATLANTIC *     CLOUDY    32  27  80 NW14      30.29R WCI  22
AUDUBON *      CLOUDY    34  25  69 N13       30.27S WCI  25
CLARINDA *     CLOUDY    34  27  75 N12       30.32R WCI  25
COUNCIL BLFS * CLOUDY    32  27  80 N10G17    30.30R WCI  24
CRESTON *      CLOUDY    32  27  80 NW15      30.26R WCI  22
HARLAN  *      CLOUDY    32  25  74 NW16      30.32R WCI  21
LAMONI         CLOUDY    34  28  79 NW12      30.27R WCI  25
RED OAK *      CLOUDY    34  27  75 N13       30.30R WCI  25
SHENANDOAH *   CLOUDY    34  27  75 N14       30.32R WCI  24
$$

IAZ047>049-059>061-072>074-084-171500-
   CENTRAL IOWA

CITY           SKY/WX    TMP DP  RH WIND       PRES   REMARKS
AMES           CLOUDY    32  27  81 NW17      30.25R WCI  21
ANKENY *       CLOUDY    34  28  80 NW13G20   30.26R WCI  25
CHARITON *     CLOUDY    36  30  80 NW15G22   30.25R WCI  26
DES MOINES     CLOUDY    36  27  69 N16       30.25R WCI  26
GRINNELL*      CLOUDY    33  29  86 NW17G24   30.23R WCI  22
KNOXVILLE *    CLOUDY    37  28  70 NW15G24   30.23R WCI  28
MARSHALLTOWN   CLOUDY    33  29  85 NW17      30.22R WCI  22
NEWTON *       CLOUDY    34  28  80 NW13G23   30.24R WCI  25
PELLA *        CLOUDY    36  30  79 NW15G25   30.24R WCI  26
PERRY *        CLOUDY    33  26  76 NW13      30.26R WCI  24
$$

IAZ004>006-015-016-023>025-035-036-171500-
   NORTH CENTRAL IOWA

CITY           SKY/WX    TMP DP  RH WIND       PRES   REMARKS
ALGONA *       CLOUDY    28  25  86 N10       30.27R WCI  19
CLARION *      CLOUDY    30  27  86 NW15      30.25R WCI  19
ESTHERVILLE    CLOUDY    26  24  92 NW12      30.26R WCI  16
FORT DODGE *   CLOUDY    30  25  80 NW10      30.27R WCI  21
MASON CITY     CLOUDY    31  28  89 NW14      30.22R WCI  21
FOREST CITY *  CLOUDY    32  28  86 NW12G17   30.22R WCI  23
IOWA FALLS *   CLOUDY    32  28  86 NW17      30.23R WCI  21
$$

IAZ007>011-017>019-026>030-037>042-050>054-066-171500-
   NORTHEAST IOWA

CITY           SKY/WX    TMP DP  RH WIND       PRES   REMARKS
CEDAR RAPIDS   CLOUDY    36  29  75 W21       30.18R WCI  25
CHARLES CITY * CLOUDY    34  28  80 NW15      30.20R WCI  24
CLINTON *      PTSUNNY   43  34  70 W15       30.18S
DECORAH *      CLOUDY    34  34 100 W8G15     30.14R WCI  27
DUBUQUE        CLOUDY    36  32  85 W18       30.14R WCI  26
MONTICELLO *   CLOUDY    37  32  81 W17       30.16  WCI  28
OELWEIN *      CLOUDY   N/A N/A N/A NW20      30.17R
WATERLOO       CLOUDY    35  30  82 NW10G22   30.19R WCI  27
$$

IAZ064-065-067-068-078-171500-
   EAST CENTRAL IOWA

CITY           SKY/WX    TMP DP  RH WIND       PRES   REMARKS
DAVENPORT      CLOUDY    40  33  76 W15       30.17R WCI  32
IOWA CITY      CLOUDY    38  31  76 NW16      30.21R WCI  29
MT. PLEASANT * CLOUDY    40  32  73 W13       30.21R WCI  33
MUSCATINE *    CLOUDY    41  32  70 NW14G21   30.20R
QUAD CITIES    CLOUDY    41  33  73 W13       30.17R
$$

IAZ062-063-075>077-085>089-095>099-171500-
   SOUTHEAST IOWA

CITY           SKY/WX    TMP DP  RH WIND       PRES   REMARKS
BURLINGTON     CLOUDY    41  34  76 NW7       30.21R
FAIRFIELD *    CLOUDY    39  32  75 W14       30.22R WCI  31
FORT MADISON * CLOUDY    41  36  81 NW10      30.22R
KEOKUK *       CLOUDY    43  36  75 NW12      30.21R
OSKALOOSA *    CLOUDY    38  32  79 NW14G22   30.23R WCI  29
CENTERVILLE *  CLOUDY    36  32  87 NW9       30.26R WCI  29
OTTUMWA        CLOUDY    38  30  73 NW15      30.22R WCI  29
WASHINGTON *   CLOUDY    39  32  75 NW14G21   30.21R WCI  31
$$

ABBREVIATIONS USED IN REMARKS
   TC - TEMPERATURES IN CELSIUS
  WCI - WIND CHILL INDEX
   HX - HEAT INDEX
  VSB - VISIBILITY
$$




USA.gov is the U.S. government's official web portal to all federal, state and local government web resources and services.